BEZ323 TQPF-TUPJ

Flight info

Callsign BEZ323
Flight time N/A
Altitude 8000
Route PJM B520 LARPP
Aircraft C208/L-SDFGR/C

Departure

Time 2026-05-03 22:38
Airport Clayton J. Lloyd International Airport (TQPF)

Arrival

Time N/A
Airport Terrance B. Lettsome International Airport (TUPJ)
Time Latitude Longitude Altitude Speed Heading
2026-05-03 22:24 18.20612 -63.05113 103 ft 0 kts 125°
2026-05-03 22:34 18.20610 -63.05110 103 ft 5 kts 122°
2026-05-03 22:34 18.20583 -63.05123 102 ft 2 kts 243°
2026-05-03 22:35 18.20493 -63.05168 102 ft 22 kts 189°
2026-05-03 22:35 18.20476 -63.05321 105 ft 30 kts 272°
2026-05-03 22:35 18.20479 -63.05568 112 ft 30 kts 272°
2026-05-03 22:35 18.20483 -63.05807 118 ft 36 kts 270°
2026-05-03 22:36 18.20489 -63.06061 130 ft 28 kts 285°
2026-05-03 22:36 18.20484 -63.06152 134 ft 6 kts 174°
2026-05-03 22:36 18.20485 -63.06052 129 ft 10 kts 86°
2026-05-03 22:36 18.20485 -63.06037 128 ft 0 kts 90°
2026-05-03 22:37 18.20486 -63.05758 139 ft 84 kts 91°
2026-05-03 22:38 18.20471 -63.05003 328 ft 123 kts 92°
2026-05-03 22:38 18.20563 -63.04043 646 ft 137 kts 75°
2026-05-03 22:38 18.21084 -63.03234 1071 ft 137 kts 43°
2026-05-03 22:38 18.22019 -63.02895 1405 ft 152 kts
2026-05-03 22:39 18.23090 -63.03101 1737 ft 162 kts 340°
2026-05-03 22:39 18.23847 -63.03985 2040 ft 169 kts 291°
2026-05-03 22:39 18.23885 -63.05196 2348 ft 166 kts 258°
2026-05-03 22:39 18.23667 -63.06394 2658 ft 168 kts 256°
2026-05-03 22:40 18.23447 -63.07602 2981 ft 168 kts 256°
2026-05-03 22:40 18.23309 -63.08397 3189 ft 167 kts 256°
2026-05-03 22:40 18.23102 -63.09599 3499 ft 167 kts 257°
2026-05-03 22:40 18.22895 -63.10795 3810 ft 166 kts 257°
2026-05-03 22:41 18.22832 -63.12400 4232 ft 165 kts 269°
2026-05-03 22:41 18.22834 -63.13214 4450 ft 164 kts 268°
2026-05-03 22:41 18.22818 -63.14415 4768 ft 164 kts 268°
2026-05-03 22:41 18.22794 -63.15619 5079 ft 164 kts 268°
2026-05-03 22:42 18.22768 -63.16805 5387 ft 163 kts 268°
2026-05-03 22:42 18.22744 -63.17983 5696 ft 163 kts 268°
2026-05-03 22:42 18.22717 -63.19193 6020 ft 163 kts 268°
2026-05-03 22:42 18.22692 -63.20373 6339 ft 162 kts 268°
2026-05-03 22:43 18.22667 -63.21554 6651 ft 162 kts 268°
2026-05-03 22:43 18.22641 -63.22743 6946 ft 161 kts 268°
2026-05-03 22:43 18.22616 -63.23924 7250 ft 161 kts 268°
2026-05-03 22:43 18.22590 -63.25086 7553 ft 160 kts 269°
2026-05-03 22:44 18.22565 -63.26263 7863 ft 160 kts 268°
2026-05-03 22:44 18.22537 -63.27465 7993 ft 172 kts 268°
2026-05-03 22:44 18.22511 -63.28764 7996 ft 182 kts 269°
2026-05-03 22:44 18.22482 -63.30110 7995 ft 185 kts 268°
2026-05-03 22:45 18.22453 -63.31465 7997 ft 190 kts 269°
2026-05-03 22:45 18.22421 -63.32867 7999 ft 191 kts 269°
2026-05-03 22:45 18.22415 -63.33149 8000 ft 191 kts 269°